Terminal Aerodrome Forecast
Issued by NWS Wakefield, VA

Home | Current Version | Previous Version | Text Only | Print | Product List | Glossary On
Versions: 1 2 3 4 5 6 7 8 9 10 11 12 13 14 15 16 17 18 19 20
000
FTUS41 KAKQ 211100
TAFECG
TAF
KECG 211136Z 2112/2212 24003KT 4SM BR SCT020
     FM211400 VRB06KT P6SM SCT040=

USA.gov is the U.S. government's official web portal to all federal, state and local government web resources and services.